• In United Kingdom
  • List of Countries
  • For 7 days
  • Water Temperature
  • Satellite Maps
  • Weather Map
  • Weather Widgets
  • user-avatar
    Login

    Hourly Weather Verhovina

    Today, 22 September, Saturday

    Time Temperature Precipitation Wind Pressure Humidity
    00:00 +18°C° 0 mm 1 mps 699 mmHg 63%
    01:00 +18°C° 0 mm 1 mps 699 mmHg 63%
    02:00 +18°C° 0 mm 1 mps 699 mmHg 62%
    03:00 +16°C° 0 mm 1 mps 698 mmHg 66%
    04:00 +16°C° 0 mm 1 mps 698 mmHg 68%
    05:00 +16°C° 0 mm 2 mps 698 mmHg 69%
    06:00 +16°C° 0 mm 2 mps 698 mmHg 73%
    07:00 +16°C° 0 mm 2 mps 698 mmHg 75%
    08:00 +17°C° 0 mm 2 mps 698 mmHg 76%
    09:00 +19°C° 0 mm 1 mps 699 mmHg 81%
    10:00 +20°C° 0 mm 2 mps 699 mmHg 77%
    11:00 +21°C° 0 mm 3 mps 700 mmHg 75%
    12:00 +18°C° 0 mm 4 mps 700 mmHg 93%
    13:00 +17°C° 0.2 mm 4 mps 699 mmHg 93%
    14:00 +14°C° 1 mm 5 mps 699 mmHg 99%
    15:00 +16°C° 0.1 mm 3 mps 699 mmHg 96%
    16:00 +14°C° 0.2 mm 4 mps 698 mmHg 99%
    17:00 +13°C° 1.8 mm 3 mps 698 mmHg 100%
    18:00 +11°C° 6.3 mm 4 mps 698 mmHg 100%
    19:00 +10°C° 4.1 mm 2 mps 699 mmHg 100%
    20:00 +11°C° 0.9 mm 1 mps 698 mmHg 100%
    21:00 +11°C° 0 mm 1 mps 698 mmHg 100%
    22:00 +10°C° 0 mm 2 mps 699 mmHg 100%
    23:00 +10°C° 0 mm 2 mps 699 mmHg 100%

    Tomorrow, 23 September, Sunday

    Time Temperature Precipitation Wind Pressure Humidity
    00:00 +10°C° 0 mm 2 mps 700 mmHg 95%
    01:00 +10°C° 0 mm 2 mps 699 mmHg 88%
    02:00 +9°C° 0 mm 2 mps 699 mmHg 89%
    03:00 +9°C° 0 mm 2 mps 699 mmHg 91%
    04:00 +9°C° 0 mm 2 mps 699 mmHg 88%
    05:00 +8°C° 0 mm 2 mps 700 mmHg 88%
    06:00 +8°C° 0 mm 2 mps 699 mmHg 91%
    07:00 +8°C° 0 mm 2 mps 700 mmHg 93%
    08:00 +9°C° 0 mm 2 mps 700 mmHg 96%
    09:00 +10°C° 0 mm 2 mps 700 mmHg 92%
    10:00 +11°C° 0 mm 4 mps 701 mmHg 85%
    11:00 +12°C° 0 mm 4 mps 701 mmHg 85%
    12:00 +12°C° 0 mm 5 mps 702 mmHg 79%
    13:00 +13°C° 0 mm 5 mps 702 mmHg 77%
    14:00 +13°C° 0 mm 4 mps 702 mmHg 80%
    15:00 +13°C° 0 mm 4 mps 702 mmHg 85%
    16:00 +13°C° 0 mm 4 mps 701 mmHg 80%
    17:00 +12°C° 0 mm 4 mps 701 mmHg 81%
    18:00 +11°C° 0 mm 3 mps 701 mmHg 85%
    19:00 +10°C° 0 mm 2 mps 701 mmHg 86%
    20:00 +10°C° 0 mm 2 mps 700 mmHg 87%
    21:00 +9°C° 0 mm 2 mps 700 mmHg 90%
    22:00 +9°C° 0 mm 3 mps 699 mmHg 92%
    23:00 +9°C° 0 mm 3 mps 699 mmHg 94%

    Day after tomorrow, 24 September, Monday

    Time Temperature Precipitation Wind Pressure Humidity
    00:00 +9°C° 0 mm 3 mps 698 mmHg 94%
    01:00 +10°C° 0 mm 4 mps 697 mmHg 92%
    02:00 +10°C° 0 mm 4 mps 696 mmHg 92%
    03:00 +10°C° 0 mm 3 mps 694 mmHg 91%
    04:00 +10°C° 0 mm 5 mps 693 mmHg 91%
    05:00 +10°C° 0 mm 5 mps 692 mmHg 89%
    06:00 +10°C° 0 mm 5 mps 692 mmHg 85%
    07:00 +12°C° 0 mm 4 mps 689 mmHg 82%
    08:00 +13°C° 0 mm 12 mps 686 mmHg 85%
    09:00 +14°C° 0 mm 12 mps 687 mmHg 89%
    10:00 +14°C° 1 mm 13 mps 689 mmHg 97%
    11:00 +16°C° 0.9 mm 11 mps 688 mmHg 95%
    12:00 +15°C° 0.2 mm 12 mps 689 mmHg 97%
    13:00 +15°C° 0.2 mm 12 mps 689 mmHg 96%
    14:00 +15°C° 0.3 mm 12 mps 689 mmHg 95%
    15:00 +13°C° 0.3 mm 10 mps 690 mmHg 91%
    16:00 +11°C° 0 mm 9 mps 692 mmHg 85%
    17:00 +10°C° 0 mm 8 mps 692 mmHg 85%
    18:00 +9°C° 0 mm 7 mps 693 mmHg 86%
    19:00 +8°C° 0 mm 7 mps 693 mmHg 87%
    20:00 +6°C° 0 mm 7 mps 694 mmHg 88%
    21:00 +7°C° 0 mm 5 mps 695 mmHg 88%
    22:00 +6°C° 0 mm 5 mps 695 mmHg 87%
    23:00 +5°C° 0 mm 5 mps 695 mmHg 89%

    25 September, Tuesday

    Time Temperature Precipitation Wind Pressure Humidity
    00:00 +5°C° 0 mm 5 mps 696 mmHg 91%
    01:00 +4°C° 0 mm 6 mps 696 mmHg 94%
    02:00 +3°C° 0 mm 6 mps 696 mmHg 96%

    26 September, Wednesday

    Time Temperature Precipitation Wind Pressure Humidity

    27 September, Thursday

    Time Temperature Precipitation Wind Pressure Humidity
    Show more